Location: La Bastide
(43.1661°N, 1.2755°E)
Time: 00:56:04
(UTC+00:00)

Resurs 1-3 - Pass Details

Date: 13 December 2025
Orbit: 613 x 615 km, 97.7° (Epoch: 19 January)

Event Time Altitude Azimuth Distance (km) Brightness Sun altitude
Rises 18:35:47 0° 174° (S) 2,870 7.0 -23.9°
Reaches altitude 10° 18:37:58 10° 177° (S) 1,970 6.2 -24.2°
Maximum altitude 18:42:13 63° 259° (W) 691 3.9 -25.0°
Drops below altitude 10° 18:46:30 10° 341° (NNW) 1,986 6.3 -25.8°
Sets 18:48:43 0° 345° (NNW) 2,896 7.1 -26.2°
